This is the latest recevied weather packets stored in our database for station/object K1RFS. If no packets are shown the sender has not sent any weather packets the latest 10 day(s).
| Time | Temp. | Humidity | Pressure | Rain* | Wind** | Luminosity | Snow |
|---|---|---|---|---|---|---|---|
| 1787570826 | 20° C | 55% | 1006.4 hPa | 0 mm | - | 0 W/m² | - |
| 1787570521 | 20.56° C | 53% | 1006.5 hPa | 0 mm | - | 0 W/m² | - |
| 1787570217 | 20° C | 53% | 1006.3 hPa | 0 mm | - | 0 W/m² | - |
| 1787569913 | 19.44° C | 57% | 1006.4 hPa | 0 mm | - | 0 W/m² | - |
| 1787569609 | 19.44° C | 58% | 1006.2 hPa | 0 mm | - | 0 W/m² | - |
| 1787569304 | 19.44° C | 56% | 1006.3 hPa | 0 mm | - | 0 W/m² | - |
| 1787569003 | 19.44° C | 56% | 1006.4 hPa | 0 mm | - | 0 W/m² | - |
| 1787568698 | 19.44° C | 56% | 1006.3 hPa | 0 mm | - | 0 W/m² | - |
| 1787568394 | 20° C | 54% | 1006.4 hPa | 0 mm | - | 0 W/m² | - |
| 1787568090 | 20.56° C | 53% | 1006.3 hPa | 0 mm | - | 0 W/m² | - |
| 1787567785 | 20° C | 53% | 1006.3 hPa | 0 mm | - | 0 W/m² | - |
| 1787567480 | 18.89° C | 56% | 1006.2 hPa | 0 mm | - | 0 W/m² | - |
| 1787567179 | 18.89° C | 58% | 1006.5 hPa | 0 mm | - | 0 W/m² | - |
| 1787566873 | 18.89° C | 58% | 1006.5 hPa | 0 mm | - | 0 W/m² | - |
| 1787566568 | 18.89° C | 60% | 1006.5 hPa | 0 mm | - | 0 W/m² | - |
| 1787566263 | 18.89° C | 61% | 1006.5 hPa | 0 mm | - | 0 W/m² | - |
| 1787565959 | 18.89° C | 59% | 1006.4 hPa | 0 mm | - | 0 W/m² | - |
| 1787565654 | 18.89° C | 61% | 1006.5 hPa | 0 mm | - | 0 W/m² | - |
| 1787565350 | 18.89° C | 61% | 1006.2 hPa | 0 mm | - | 0 W/m² | - |
| 1787565047 | 18.89° C | 61% | 1006.4 hPa | 0 mm | - | 0 W/m² | - |
| 1787564743 | 18.89° C | 60% | 1006.2 hPa | 0 mm | - | 0 W/m² | - |
| 1787564442 | 18.89° C | 61% | 1006.3 hPa | 0 mm | - | 0 W/m² | - |
| 1787564137 | 19.44° C | 60% | 1006.4 hPa | 0 mm | - | 0 W/m² | - |
| 1787563833 | 19.44° C | 59% | 1006.4 hPa | 0 mm | - | 0 W/m² | - |
| 1787563529 | 19.44° C | 57% | 1006.5 hPa | 0 mm | - | 0 W/m² | - |
* Rain latest hour (hover to see other rain measurements)
** Current wind speed in m/s (hover to see current wind gust speed)